{"data":{"norad_id":58712,"epoch":"2026-09-20T16:29:28.794912Z","epoch_age_seconds":133573,"freshness":"FRESH","line1":"1 58712U 24002H   26263.68713883  .00000624  00000+0  29596-4 0  9990","line2":"2 58712  53.1590  42.5456 0000771  28.4755 331.6289 15.34389163151899","mean_motion":15.34389163,"eccentricity":7.71e-5,"inclination_deg":53.159,"raan_deg":42.5456,"arg_perigee_deg":28.4755,"mean_anomaly_deg":331.6289,"bstar":2.9596e-5,"rev_number":15189,"period_min":93.848420904156,"perigee_km":462.20801897856,"apogee_km":463.26288151039,"semimajor_km":6840.8724502445,"source":"CELESTRAK","updated_at":"2026-09-21T09:00:33.948325Z"}}